TimeEDT,TemperatureF,Dew PointF,Humidity,Sea Level PressureIn,VisibilityMPH,Wind Direction,Wind SpeedMPH,Gust SpeedMPH,PrecipitationIn,Events,Conditions,WindDirDegrees,DateUTC
12:53 AM,62.1,57.9,86,29.92,10.0,Calm,Calm,-,N/A,,Clear,0,2013-06-14 04:53:00
1:53 AM,62.1,57.9,86,29.91,10.0,West,5.8,-,N/A,,Clear,280,2013-06-14 05:53:00
2:53 AM,62.1,57.0,84,29.90,10.0,NW,5.8,-,N/A,,Clear,320,2013-06-14 06:53:00
3:53 AM,60.1,55.9,86,29.90,10.0,NNW,4.6,-,N/A,,Clear,330,2013-06-14 07:53:00
4:53 AM,60.1,55.0,83,29.90,10.0,North,3.5,-,N/A,,Clear,10,2013-06-14 08:53:00
5:53 AM,59.0,55.0,87,29.92,10.0,Calm,Calm,-,N/A,,Clear,0,2013-06-14 09:53:00
6:53 AM,57.9,55.0,90,29.96,10.0,WNW,3.5,-,N/A,,Clear,300,2013-06-14 10:53:00
7:53 AM,60.1,55.9,86,29.98,10.0,Calm,Calm,-,N/A,,Clear,0,2013-06-14 11:53:00
8:53 AM,62.1,55.9,80,30.00,10.0,Calm,Calm,-,N/A,,Clear,0,2013-06-14 12:53:00
9:53 AM,66.0,57.0,73,30.02,10.0,Calm,Calm,-,N/A,,Clear,0,2013-06-14 13:53:00
10:53 AM,69.1,57.0,65,30.01,10.0,Calm,Calm,-,N/A,,Clear,0,2013-06-14 14:53:00
11:53 AM,72.0,57.9,61,30.02,10.0,Calm,Calm,-,N/A,,Partly Cloudy,0,2013-06-14 15:53:00
12:53 PM,75.0,57.9,55,30.03,10.0,Calm,Calm,-,N/A,,Partly Cloudy,0,2013-06-14 16:53:00
1:53 PM,73.9,55.9,53,30.03,10.0,Variable,4.6,-,N/A,,Scattered Clouds,0,2013-06-14 17:53:00
2:53 PM,75.9,57.0,52,30.01,10.0,Variable,3.5,-,N/A,,Partly Cloudy,0,2013-06-14 18:53:00
3:53 PM,75.0,55.9,51,30.01,10.0,Calm,Calm,-,N/A,,Mostly Cloudy,0,2013-06-14 19:53:00
4:53 PM,77.0,55.9,48,30.01,10.0,Calm,Calm,-,N/A,,Clear,0,2013-06-14 20:53:00
5:53 PM,77.0,55.9,48,30.01,10.0,Variable,3.5,-,N/A,,Scattered Clouds,0,2013-06-14 21:53:00
6:53 PM,75.0,55.0,50,30.01,10.0,Calm,Calm,-,N/A,,Clear,0,2013-06-14 22:53:00
7:53 PM,73.9,55.9,53,30.01,10.0,Calm,Calm,-,N/A,,Clear,0,2013-06-14 23:53:00
8:53 PM,69.1,55.9,63,30.02,10.0,Calm,Calm,-,N/A,,Clear,0,2013-06-15 00:53:00
9:53 PM,66.9,55.9,68,30.02,10.0,Calm,Calm,-,N/A,,Clear,0,2013-06-15 01:53:00
10:53 PM,66.9,57.0,70,30.06,10.0,Calm,Calm,-,N/A,,Clear,0,2013-06-15 02:53:00
11:53 PM,64.9,55.9,73,30.07,10.0,Calm,Calm,-,N/A,,Clear,0,2013-06-15 03:53:00